Location: Brede
(50.9167°N, 0.6000°E)
Time: 01:44:20
(UTC+00:00)

ADEOS II - Pass Details

Date: 08 August 2020
Orbit: 799 x 802 km, 98.5° (Epoch: 19 September)

Event Time Altitude Azimuth Distance (km) Brightness Sun altitude
Rises 03:30:19 0° 9° (N) 3,324 6.1 -9.3°
Reaches altitude 10° 03:32:49 10° 1° (N) 2,389 5.2 -9.0°
Maximum altitude 03:37:32 35° 297° (WNW) 1,279 3.0 -8.4°
Drops below altitude 10° 03:42:15 10° 233° (SW) 2,373 3.8 -7.8°
Enters shadow 03:42:22 10° 233° (SW) 2,414 3.9 -7.8°
